User: anonymous   Login
Location: Unspecified
(0.0000°N, 0.0000°E)
Time: 19:28:19
(UTC+00:00)
Language:

Tansei-3 - Orbit

View from above orbital plane
View from above orbital plane
View from above satellite
View from above satellite

Ground track
Ground track

The orbit data is extracted from the following two-line orbital elements,

1 09841U 77012A   18139.69228104 -.00000041  00000-0 -13538-4 0  9994
2 09841  65.7543 246.0498 1730931  16.0567 348.8779 10.73817164617105
Epoch (UTC): 19 May 2018 16:36:53
Eccentricity: 0.1730931
inclination: 65.7543°
perigee height: 798 km
apogee height: 3802 km
right ascension of ascending node: 246.0498°
argument of perigee: 16.0567°
revolutions per day: 10.73817164
mean anomaly at epoch: 348.8779°
orbit number at epoch: 61710

The dashed part of the orbit path shows where the satellite is in the earth's shadow,  

DLR